STARLINK-1258 (45381 NORAD) Tracking and Keplerian Element Data

This shows tracking and keplerian element data for the satellite.

Feedback or suggestion? Click here.




ElementValue
Catalog45381
NameSTARLINK-1258
Epoch Orbit1174
Epoch Day149.33334491
Epoch Year2020
RAAN267.8281
Inclination52.9973
Eccentricity0.0001139
Argument of Perigee187.004
Mean Anonmoly343.8264
Mean Motion15.49271751
Decay Rate0.02234635
L11 45381U 20019X 20149.33334491 .02234635 00000-0 36077-1 0 9998
L22 45381 52.9973 267.8281 0001139 187.0040 343.8264 15.49271751 11741

Live tracking and technical data element details for STARLINK-1258 (NORAD 45381). STARLINK-1258 can be tracked NOW for your location showing map with azimuth and elevation plus other details from your city location.

Track the satellite on the map from your city or location and see movement details for azimuth, elevation, latitude, longitude, range, height, and movement on the map or in text.







IsCatalogInMostPopularTable: catalog: 45381, numindb: 12
Update: records affected: 1



GetName: 45381 STARLINK-1258

Hit Count: updated at: Sat, 30 May 2020 16:13:39 GMT